Strait of Georgia - south of Nanaimo: Past 24 Hour Conditions

 

Discovery Island

11:00 AM PST 28 November 2014
This table is a summary of hourly weather conditions for the past 24 hours.
Date / Time
(PST)
Wind(knots) Conditions Visibility(km) Pressure(kPa) Air tempC) Relative humidity(%) Dew pointC)
28 November 2014
11:00 NE 5 N/A N/A 100.0 7 74 3
10:00 N 4 N/A N/A 100.0 7 81 4
9:00 calm N/A N/A 100.0 6 81 3
8:00 NE 8 N/A N/A 100.0 7 87 4
7:00 NNE 8 N/A N/A 100.0 7 79 4
6:00 NNE 16 N/A N/A 100.0 7 87 5
5:00 W 5 N/A N/A 99.9 10 83 8
4:00 SW 7 N/A N/A 99.9 10 90 8
3:00 SSW 13 N/A N/A 100.0 12 88 10
2:00 SSW 10 N/A N/A 99.9 11 94 10
1:00 SSW 9 N/A N/A 100.0 11 94 10
0:00 SSW 11 N/A N/A 100.1 12 89 10
27 November 2014
23:00 SSW 11 N/A N/A 100.1 12 87 10
22:00 SSW 17 gust 25 N/A N/A 100.1 12 87 10
21:00 SSW 10 N/A N/A 100.2 12 88 10
20:00 W 3 N/A N/A 100.2 11 92 10
19:00 SW 8 N/A N/A 100.3 12 90 10
18:00 SSW 9 N/A N/A 100.3 12 87 10
17:00 SW 14 N/A N/A 100.3 12 88 10
16:00 SSW 12 gust 17 N/A N/A 100.4 12 86 10
15:00 SSW 13 N/A N/A 100.4 11 90 10
14:00 SW 10 N/A N/A 100.4 12 88 10
13:00 S 9 N/A N/A 100.5 12 85 10
12:00 SSE 11 N/A N/A 100.5 12 88 10
11:00 SSE 19 N/A N/A 100.6 12 88 10
 
Map of Pacific - Georgia Basin marine weather areas Tsawwassen Ferry Terminal Sentry Shoal - 46131 Halibut Bank - 46146 La Perouse Bank - 46206 Discovery Island Esquimalt Harbour Kelp Reefs Malahat Race Rocks Lightstation Saturna Island Sheringham Point University of Victoria Victoria Gonzales Victoria Int'l Airport Ballenas Islands Campbell River Airport Comox Airport Entrance Island Fanny Island Nanaimo Airport Sisters Islets Estevan Point Tofino Airport Grief Point Powell River Airport Sechelt Point Atkinson Sand Heads Lightstation Vancouver Harbour Vancouver Int'l Airport West Vancouver Port Alberni Howe Sound - Pam Rocks Squamish Airport